Regional Weather Roundup
Issued by NWS State College, PA

Home | Current Version | Previous Version | Text Only | Print | Product List | Glossary Off
Versions: 1 2 3 4 5 6 7 8 9 10 11 12 13 14 15 16 17 18 19 20 21 22 23 24 25 26 27 28 29 30 31 32 33 34 35 36 37 38 39 40 41 42 43 44 45 46 47 48 49 50

112
ASUS41 KCTP 022210
RWRCTP

REGIONAL WEATHER ROUNDUP
NATIONAL WEATHER SERVICE STATE COLLEGE PA
500 PM EST FRI DEC 02 2016

Note: "fair" indicates few or no clouds below 12,000 feet with no
significant weather and/or obstructions to visibility.

* = STATION THAT DOES NOT REPORT PRECIPITATION /E.G. RAIN...SNOW...ETC/
    THUNDER OR FOG.

PAZ002>004-007>009-013>016-020>023-029>032-022300-
WESTERN PENNSYLVANIA

CITY           SKY/WX    TMP DP  RH WIND       PRES   REMARKS
ERIE           CLOUDY    41  28  60 W16G25    30.02R
MEADVILLE      CLOUDY    34  31  88 W12       30.03R
FRANKLIN*        N/A     36  28  75 W10G20    30.03R
NEW CASTLE     LGT RAIN  38  31  76 W12G18    30.09R
BEAVER COUNTY  CLOUDY    36  32  87 MISG      30.07R
BUTLER*        CLOUDY    36  28  75 W13       30.08S
PITTSBURGH INT CLOUDY    39  30  70 SW9       30.08R
PITTSBURGH     CLOUDY    37  27  67 SW18G24   30.08S
INDIANA*       CLOUDY    36  32  87 W13       30.06S
LATROBE        LGT RAIN  36  32  87 SW15G25   30.09R
WASHINGTON CO* CLOUDY    36  27  69 W7        30.12R
$$

PAZ004>006-010>012-017>019-024>028-033>037-041-042-045-046-049>053-022300-
CENTRAL PENNSYLVANIA

CITY           SKY/WX    TMP DP  RH WIND       PRES   REMARKS
BRADFORD       LGT SNOW  33  31  92 W10       29.93R VSB 1
DUBOIS         CLOUDY    35  29  78 W17       29.97R
CLEARFIELD     CLOUDY    37  31  78 W10       29.98R
JOHNSTOWN      CLOUDY    32  28  85 W16G26    29.99R
ALTOONA        CLOUDY    38  29  70 W15       30.01S
STATE COLLEGE  CLOUDY    37  28  70 W13G23    29.98S
WILLIAMSPORT   CLOUDY    43  30  60 W17       29.94R
SELINSGROVE    CLOUDY    43  30  60 SW5       29.98S
FT INDIANTOWN  CLOUDY    43  27  51 SW13      29.98R
CAPITAL CITY   CLOUDY    43  27  53 W15G24    30.01R
HARRISBURG     MOCLDY    43  30  60 W15G23    30.01R
YORK           CLOUDY    41  29  62 W10G20    30.02R
$$

PAZ038>040-043-044-047-048-054-055-060>062-067>071-022300-
EASTERN PENNSYLVANIA

CITY           SKY/WX    TMP DP  RH WIND       PRES   REMARKS
SCRANTON       CLOUDY    42  30  62 W16       29.89R
MOUNT POCONO   CLOUDY    37  26  64 W16G28    29.85R
ALLENTOWN      CLOUDY    46  27  47 W15G24    29.93R
QUAKERTOWN*    CLOUDY    45  27  49 W8G17     29.95R
READING        CLOUDY    44  26  49 W9        29.96R
LANCASTER      CLOUDY    43  29  57 W15       29.99R
COATESVILLE    MOCLDY    41  28  60 W8G15     29.99R
POTTSTOWN      CLOUDY    44  26  49 W10G21    29.98R
BLUE BELL      CLOUDY    43  28  56 W7G20     29.96R
DOYLESTOWN     MOCLDY    46  28  49 W12       29.93R
WILLOW GROVE   NOT AVBL
NORTH PHILA    CLOUDY    47  27  45 W17G28    29.97R
PHILADELPHIA   PTCLDY    47  25  42 W23G29    29.98R
$$




USA.gov is the U.S. government's official web portal to all federal, state and local government web resources and services.